QPF
0.01 0.01 0.01 0.02 0.02 0.02 0.02 0.02 0.04 0.03 0.11 0.14 0.08 0.01 0.00 0.01 0.02 0.01 0.00 0.00 0.00 0.00
0.01 0.02 0.03 0.01 0.02 0.03 0.02 0.03 0.03 0.04 0.05 0.14 0.09 0.03 0.02 0.02 0.03 0.02 0.01 0.00 0.00 0.01
0.00 0.00 0.00 0.00 0.01 0.01 0.01 0.03 0.03 0.02 0.06 0.06 0.06 0.03 0.02 0.01 0.01 0.01 0.02 0.02 0.01 0.00
0.00 0.00 0.00 0.00 0.00 0.00 0.00 0.02 0.03 0.04 0.05 0.02 0.01 0.00 0.02 0.01 0.01 0.01 0.02 0.04 0.03 0.03
0.00 0.00 0.00 0.00 0.00 0.00 0.00 0.00 0.01 0.04 0.06 0.06 0.04 0.03 0.01 0.01 0.00 0.01 0.04 0.05 0.04 0.03
0.00 0.00 0.00 0.00 0.00 0.00 0.00 0.00 0.00 0.00 0.01 0.03 0.04 0.05 0.04 0.05 0.06 0.05 0.06 0.05 0.05 0.04
0.00 0.00 0.00 0.00 0.00 0.00 0.00 0.00 0.00 0.00 0.00 0.01 0.01 0.01 0.01 0.01 0.02 0.03 0.05 0.06 0.04 0.03
0.00 0.00 0.00 0.00 0.00 0.00 0.00 0.00 0.00 0.01 0.01 0.01 0.00 0.00 0.00 0.00 0.00 0.01 0.02 0.05 0.05 0.04
0.00 0.00 0.00 0.00 0.00 0.00 0.00 0.00 0.00 0.00 0.00 0.00 0.00 0.00 0.00 0.00 0.00 0.00 0.01 0.01 0.03 0.04
0.00 0.00 0.00 0.00 0.00 0.00 0.00 0.00 0.00 0.00 0.00 0.00 0.00 0.00 0.00 0.00 0.01 0.02 0.02 0.02 0.03 0.03
0.00 0.00 0.00 0.00 0.00 0.00 0.00 0.00 0.00 0.00 0.00 0.00 0.00 0.00 0.00 0.00 0.00 0.00 0.00 0.00 0.00 0.00
0.00 0.00 0.00 0.00 0.00 0.00 0.00 0.00 0.00 0.00 0.00 0.00 0.00 0.00 0.00 0.00 0.00 0.00 0.00 0.00 0.00 0.00
0.00 0.00 0.00 0.00 0.00 0.00 0.00 0.00 0.00 0.00 0.00 0.00 0.00 0.00 0.00 0.00 0.00 0.00 0.00 0.00 0.00 0.00
0.00 0.00 0.00 0.00 0.00 0.00 0.00 0.00 0.00 0.00 0.00 0.00 0.00 0.00 0.00 0.00 0.00 0.00 0.00 0.00 0.00 0.00
MSLP
1007.04 1007.08 1006.84 1006.50 1006.48 1007.05 1006.94 1006.34 1006.71 1007.36 1007.66 1007.87 1008.07 1008.32 1008.42 1008.69 1008.87 1008.17 1008.74 1009.06 1009.54 1009.95
1007.38 1007.20 1007.23 1007.40 1007.58 1007.74 1006.91 1006.71 1006.74 1007.01 1007.30 1007.54 1007.59 1007.48 1007.69 1008.10 1008.34 1008.54 1008.40 1008.28 1008.38 1009.10
1008.69 1008.54 1008.79 1008.59 1009.08 1008.13 1007.49 1007.36 1007.28 1006.76 1006.82 1007.08 1007.11 1007.15 1007.18 1007.30 1007.99 1007.93 1008.22 1008.08 1007.97 1008.61
1009.84 1009.95 1010.21 1009.28 1008.89 1008.59 1009.04 1007.59 1007.64 1006.64 1006.60 1006.54 1006.52 1006.48 1006.55 1006.74 1007.08 1007.35 1007.53 1007.42 1007.62 1007.94
1010.52 1010.85 1010.76 1010.01 1010.00 1009.69 1009.36 1009.67 1008.77 1007.54 1006.27 1006.21 1006.09 1005.87 1005.98 1006.22 1006.45 1006.72 1006.85 1006.78 1007.13 1007.25
1012.15 1012.62 1011.85 1011.64 1011.70 1011.51 1011.26 1010.55 1009.67 1008.82 1008.18 1007.66 1006.37 1006.02 1005.76 1005.75 1005.93 1006.20 1006.21 1006.19 1006.37 1006.47
1014.44 1014.28 1013.88 1013.50 1013.06 1012.52 1011.98 1011.66 1010.90 1010.45 1009.93 1009.42 1009.06 1008.65 1008.00 1007.17 1005.86 1005.50 1005.60 1005.64 1005.72 1005.94
1015.70 1015.38 1014.74 1014.02 1013.68 1013.26 1012.84 1012.66 1012.38 1011.67 1011.26 1010.89 1010.30 1010.08 1009.16 1008.04 1006.88 1005.85 1005.20 1005.11 1005.11 1005.18
1016.29 1015.51 1015.49 1015.23 1014.90 1014.44 1013.89 1013.42 1012.88 1012.78 1012.70 1011.81 1011.32 1010.82 1009.65 1008.63 1006.94 1006.35 1005.60 1005.01 1004.71 1004.63
1017.70 1016.97 1016.22 1015.77 1015.38 1015.00 1014.86 1014.71 1014.46 1014.03 1013.37 1012.96 1012.74 1011.40 1010.52 1009.62 1008.40 1007.97 1007.70 1007.20 1006.23 1005.10
1019.36 1018.46 1017.56 1017.11 1016.51 1015.98 1015.78 1015.51 1015.25 1015.04 1014.76 1014.12 1013.71 1013.08 1012.08 1010.78 1009.62 1009.09 1009.46 1009.16 1008.35 1007.48
1020.10 1019.58 1018.94 1018.34 1017.90 1017.34 1016.85 1016.59 1016.30 1016.21 1015.74 1015.30 1015.09 1014.46 1013.46 1011.90 1011.17 1011.24 1010.84 1010.52 1009.53 1008.60
1021.73 1021.24 1020.72 1020.15 1019.54 1018.90 1018.35 1018.04 1017.62 1017.37 1017.10 1016.66 1016.01 1015.26 1014.46 1013.70 1013.20 1012.64 1012.04 1011.60 1010.44 1009.64
1022.48 1022.24 1021.92 1021.41 1020.77 1020.24 1019.65 1019.13 1018.72 1018.25 1017.98 1017.55 1017.00 1016.45 1015.86 1015.15 1014.39 1013.82 1013.19 1012.50 1011.72 1011.42
Thickness
5617 5623 5631 5637 5641 5640 5647 5657 5656 5650 5649 5649 5648 5645 5646 5646 5647 5653 5648 5645 5643 5640
5605 5612 5617 5619 5622 5625 5638 5640 5644 5642 5640 5639 5641 5643 5642 5640 5640 5639 5641 5643 5643 5638
5583 5590 5592 5599 5600 5611 5621 5623 5626 5632 5633 5632 5634 5636 5635 5637 5635 5636 5636 5637 5638 5633
5565 5567 5571 5583 5588 5594 5593 5609 5611 5620 5623 5627 5629 5630 5631 5632 5631 5631 5632 5633 5632 5628
5549 5549 5554 5565 5566 5571 5577 5576 5586 5600 5616 5619 5623 5627 5627 5627 5626 5624 5624 5627 5624 5625
5526 5522 5534 5540 5542 5546 5550 5558 5568 5578 5586 5594 5610 5615 5620 5621 5620 5618 5620 5622 5621 5621
5498 5500 5508 5515 5520 5528 5534 5537 5547 5554 5561 5568 5574 5579 5586 5596 5611 5615 5616 5616 5616 5614
5482 5487 5495 5503 5508 5513 5518 5522 5528 5536 5540 5544 5552 5556 5565 5576 5588 5600 5607 5607 5608 5608
5472 5481 5482 5485 5489 5495 5502 5508 5514 5516 5518 5526 5532 5538 5549 5558 5574 5581 5592 5598 5599 5601
5455 5462 5469 5474 5478 5482 5483 5485 5489 5494 5502 5506 5509 5521 5529 5537 5548 5551 5553 5558 5565 5580
5435 5443 5450 5454 5459 5464 5467 5469 5471 5474 5478 5484 5488 5494 5504 5514 5525 5529 5525 5530 5536 5544
5427 5430 5435 5439 5442 5447 5450 5451 5453 5453 5457 5461 5464 5469 5478 5491 5498 5494 5499 5505 5516 5525
5409 5413 5416 5419 5423 5428 5432 5433 5435 5435 5435 5438 5443 5448 5455 5462 5466 5470 5477 5483 5495 5503
5399 5399 5400 5403 5408 5411 5414 5417 5417 5419 5419 5421 5424 5427 5431 5437 5443 5448 5454 5460 5469 5473